Terminal Aerodrome Forecast
Issued by NWS

Home | Current Version | Previous Version | Text Only | Print | Product List | Glossary On
Versions: 1 2 3 4 5 6 7 8 9 10 11 12 13 14 15 16 17 18 19
000
FTUS43 KILX 241100
TAFDEC
TAF
KDEC 241135Z 2412/2512 02010KT P6SM SKC
     FM241500 04012G18KT P6SM SCT040
     FM250000 05004KT P6SM SKC
      AMD NOT SKED 2503/2511=

USA.gov is the U.S. government's official web portal to all federal, state and local government web resources and services.